owner,sensor,date,latitude,longitude,vertical_datum,wind_speed,wind_to_direction,wind_speed_of_gust,qcFlag 
NDBC,ioos:station:NOAA.NDBC:SGOF1:1,2017-07-01T00:00:00Z,29.4080,-84.8580,35.1,3.6,260.0,4.1,'1111122,1111122,1111122' 
NDBC,ioos:station:NOAA.NDBC:SGOF1:1,2017-07-01T01:00:00Z,29.4080,-84.8580,35.1,2.6,270.0,3.1,'1111122,1111122,1111122' 
NDBC,ioos:station:NOAA.NDBC:SGOF1:1,2017-07-01T02:00:00Z,29.4080,-84.8580,35.1,3.1,260.0,3.6,'1111122,1111122,1111122' 
NDBC,ioos:station:NOAA.NDBC:SGOF1:1,2017-07-01T03:00:00Z,29.4080,-84.8580,35.1,2.1,240.0,2.6,'1111122,1111122,1111122' 
NDBC,ioos:station:NOAA.NDBC:SGOF1:1,2017-07-01T04:00:00Z,29.4080,-84.8580,35.1,3.1,290.0,4.1,'1111122,1111122,1111122' 
NDBC,ioos:station:NOAA.NDBC:SGOF1:1,2017-07-01T05:00:00Z,29.4080,-84.8580,35.1,2.6,270.0,3.1,'1111122,1111122,1111122' 
NDBC,ioos:station:NOAA.NDBC:SGOF1:1,2017-07-01T06:00:00Z,29.4080,-84.8580,35.1,1.0,220.0,1.5,'1111122,1111122,1111122' 
NDBC,ioos:station:NOAA.NDBC:SGOF1:1,2017-07-01T07:00:00Z,29.4080,-84.8580,35.1,3.1,210.0,3.6,'1111122,1111122,1111122' 
NDBC,ioos:station:NOAA.NDBC:SGOF1:1,2017-07-01T08:00:00Z,29.4080,-84.8580,35.1,3.6,220.0,4.1,'1111122,1111122,1111122' 
NDBC,ioos:station:NOAA.NDBC:SGOF1:1,2017-07-01T09:00:00Z,29.4080,-84.8580,35.1,3.6,240.0,4.1,'1111122,1111122,1111122' 
NDBC,ioos:station:NOAA.NDBC:SGOF1:1,2017-07-01T10:00:00Z,29.4080,-84.8580,35.1,3.1,270.0,3.6,'1111122,1111122,1111122' 
NDBC,ioos:station:NOAA.NDBC:SGOF1:1,2017-07-01T11:00:00Z,29.4080,-84.8580,35.1,3.1,290.0,3.1,'1111122,1111122,1111122' 
NDBC,ioos:station:NOAA.NDBC:SGOF1:1,2017-07-01T12:00:00Z,29.4080,-84.8580,35.1,3.6,330.0,4.1,'1111122,1111122,1111122' 
NDBC,ioos:station:NOAA.NDBC:SGOF1:1,2017-07-01T13:00:00Z,29.4080,-84.8580,35.1,4.1,360.0,4.6,'1111122,1111122,1111122' 
NDBC,ioos:station:NOAA.NDBC:SGOF1:1,2017-07-01T14:00:00Z,29.4080,-84.8580,35.1,1.5,10.0,2.1,'1111122,1111122,1111122' 
NDBC,ioos:station:NOAA.NDBC:SGOF1:1,2017-07-01T15:00:00Z,29.4080,-84.8580,35.1,3.1,10.0,3.6,'1111122,1111122,1111122' 
NDBC,ioos:station:NOAA.NDBC:SGOF1:1,2017-07-01T16:00:00Z,29.4080,-84.8580,35.1,2.1,10.0,2.6,'1111122,1111122,1111122' 
NDBC,ioos:station:NOAA.NDBC:SGOF1:1,2017-07-01T17:00:00Z,29.4080,-84.8580,35.1,1.5,70.0,1.5,'1111122,1111122,1111122' 
NDBC,ioos:station:NOAA.NDBC:SGOF1:1,2017-07-01T18:00:00Z,29.4080,-84.8580,35.1,1.0,210.0,1.5,'1111122,1111122,1111122' 
NDBC,ioos:station:NOAA.NDBC:SGOF1:1,2017-07-01T19:00:00Z,29.4080,-84.8580,35.1,2.1,190.0,2.6,'1111122,1111122,1111122' 
NDBC,ioos:station:NOAA.NDBC:SGOF1:1,2017-07-01T20:00:00Z,29.4080,-84.8580,35.1,3.1,230.0,3.1,'1111122,1111122,1111122' 
NDBC,ioos:station:NOAA.NDBC:SGOF1:1,2017-07-01T21:00:00Z,29.4080,-84.8580,35.1,3.6,220.0,4.1,'1111122,1111122,1111122' 
NDBC,ioos:station:NOAA.NDBC:SGOF1:1,2017-07-01T22:00:00Z,29.4080,-84.8580,35.1,3.6,240.0,4.1,'1111122,1111122,1111122' 
NDBC,ioos:station:NOAA.NDBC:SGOF1:1,2017-07-01T23:00:00Z,29.4080,-84.8580,35.1,4.1,250.0,4.1,'1111122,1111122,1111122' 
NDBC,ioos:station:NOAA.NDBC:SGOF1:1,2017-07-02T00:00:00Z,29.4080,-84.8580,35.1,4.1,250.0,5.1,'1111122,1111122,1111122' 
NDBC,ioos:station:NOAA.NDBC:SGOF1:1,2017-07-02T01:00:00Z,29.4080,-84.8580,35.1,4.1,250.0,4.6,'1111122,1111122,1111122' 
NDBC,ioos:station:NOAA.NDBC:SGOF1:1,2017-07-02T02:00:00Z,29.4080,-84.8580,35.1,4.6,220.0,5.1,'1111122,1111122,1111122' 
NDBC,ioos:station:NOAA.NDBC:SGOF1:1,2017-07-02T03:00:00Z,29.4080,-84.8580,35.1,3.6,240.0,4.1,'1111122,1111122,1111122' 
NDBC,ioos:station:NOAA.NDBC:SGOF1:1,2017-07-02T04:00:00Z,29.4080,-84.8580,35.1,4.1,250.0,4.1,'1111122,1111122,1111122' 
NDBC,ioos:station:NOAA.NDBC:SGOF1:1,2017-07-02T05:00:00Z,29.4080,-84.8580,35.1,4.1,260.0,4.6,'1111122,1111122,1111122' 
NDBC,ioos:station:NOAA.NDBC:SGOF1:1,2017-07-02T06:00:00Z,29.4080,-84.8580,35.1,5.1,260.0,5.1,'1111122,1111122,1111122' 
NDBC,ioos:station:NOAA.NDBC:SGOF1:1,2017-07-02T07:00:00Z,29.4080,-84.8580,35.1,5.1,290.0,5.7,'1111122,1111122,1111122' 
NDBC,ioos:station:NOAA.NDBC:SGOF1:1,2017-07-02T08:00:00Z,29.4080,-84.8580,35.1,4.6,270.0,5.1,'1111122,1111122,1111122' 
NDBC,ioos:station:NOAA.NDBC:SGOF1:1,2017-07-02T09:00:00Z,29.4080,-84.8580,35.1,4.1,300.0,4.6,'1111122,1111122,1111122' 
NDBC,ioos:station:NOAA.NDBC:SGOF1:1,2017-07-02T10:00:00Z,29.4080,-84.8580,35.1,3.1,250.0,4.1,'1111122,1111122,1111122' 
NDBC,ioos:station:NOAA.NDBC:SGOF1:1,2017-07-02T11:00:00Z,29.4080,-84.8580,35.1,3.1,240.0,4.1,'1111122,1111122,1111122' 
NDBC,ioos:station:NOAA.NDBC:SGOF1:1,2017-07-02T12:00:00Z,29.4080,-84.8580,35.1,3.6,230.0,4.1,'1111122,1111122,1111122' 
NDBC,ioos:station:NOAA.NDBC:SGOF1:1,2017-07-02T13:00:00Z,29.4080,-84.8580,35.1,4.1,220.0,4.6,'1111122,1111122,1111122' 
NDBC,ioos:station:NOAA.NDBC:SGOF1:1,2017-07-02T14:00:00Z,29.4080,-84.8580,35.1,3.1,260.0,3.1,'1111122,1111122,1111122' 
NDBC,ioos:station:NOAA.NDBC:SGOF1:1,2017-07-02T15:00:00Z,29.4080,-84.8580,35.1,3.1,280.0,3.6,'1111122,1111122,1111122' 
NDBC,ioos:station:NOAA.NDBC:SGOF1:1,2017-07-02T16:00:00Z,29.4080,-84.8580,35.1,4.6,280.0,5.1,'1111122,1111122,1111122' 
NDBC,ioos:station:NOAA.NDBC:SGOF1:1,2017-07-02T17:00:00Z,29.4080,-84.8580,35.1,5.7,290.0,6.2,'1111122,1111122,1111122' 
NDBC,ioos:station:NOAA.NDBC:SGOF1:1,2017-07-02T18:00:00Z,29.4080,-84.8580,35.1,6.2,290.0,6.7,'1111122,1111122,1111122' 
NDBC,ioos:station:NOAA.NDBC:SGOF1:1,2017-07-02T19:00:00Z,29.4080,-84.8580,35.1,5.1,290.0,5.7,'1111122,1111122,1111122' 
NDBC,ioos:station:NOAA.NDBC:SGOF1:1,2017-07-02T20:00:00Z,29.4080,-84.8580,35.1,5.1,290.0,5.7,'1111122,1111122,1111122' 
NDBC,ioos:station:NOAA.NDBC:SGOF1:1,2017-07-02T21:00:00Z,29.4080,-84.8580,35.1,5.7,280.0,6.2,'1111122,1111122,1111122' 
NDBC,ioos:station:NOAA.NDBC:SGOF1:1,2017-07-02T22:00:00Z,29.4080,-84.8580,35.1,6.2,280.0,7.2,'1111122,1111122,1111122' 
NDBC,ioos:station:NOAA.NDBC:SGOF1:1,2017-07-02T23:00:00Z,29.4080,-84.8580,35.1,6.2,290.0,6.7,'1111122,1111122,1111122' 
NDBC,ioos:station:NOAA.NDBC:SGOF1:1,2017-07-03T00:00:00Z,29.4080,-84.8580,35.1,6.2,290.0,6.7,'1111122,1111122,1111122' 
NDBC,ioos:station:NOAA.NDBC:SGOF1:1,2017-07-03T01:00:00Z,29.4080,-84.8580,35.1,6.2,300.0,6.7,'1111122,1111122,1111122' 
NDBC,ioos:station:NOAA.NDBC:SGOF1:1,2017-07-03T02:00:00Z,29.4080,-84.8580,35.1,4.6,290.0,5.1,'1111122,1111122,1111122' 
NDBC,ioos:station:NOAA.NDBC:SGOF1:1,2017-07-03T03:00:00Z,29.4080,-84.8580,35.1,4.1,280.0,4.6,'1111122,1111122,1111122' 
NDBC,ioos:station:NOAA.NDBC:SGOF1:1,2017-07-03T04:00:00Z,29.4080,-84.8580,35.1,4.1,260.0,5.1,'1111122,1111122,1111122' 
NDBC,ioos:station:NOAA.NDBC:SGOF1:1,2017-07-03T05:00:00Z,29.4080,-84.8580,35.1,4.1,260.0,4.6,'1111122,1111122,1111122' 
NDBC,ioos:station:NOAA.NDBC:SGOF1:1,2017-07-03T06:00:00Z,29.4080,-84.8580,35.1,4.1,250.0,5.1,'1111122,1111122,1111122' 
NDBC,ioos:station:NOAA.NDBC:SGOF1:1,2017-07-03T07:00:00Z,29.4080,-84.8580,35.1,5.1,280.0,5.1,'1111122,1111122,1111122' 
NDBC,ioos:station:NOAA.NDBC:SGOF1:1,2017-07-03T08:00:00Z,29.4080,-84.8580,35.1,5.1,280.0,5.7,'1111122,1111122,1111122' 
NDBC,ioos:station:NOAA.NDBC:SGOF1:1,2017-07-03T09:00:00Z,29.4080,-84.8580,35.1,5.1,290.0,5.7,'1111122,1111122,1111122' 
NDBC,ioos:station:NOAA.NDBC:SGOF1:1,2017-07-03T10:00:00Z,29.4080,-84.8580,35.1,4.1,300.0,4.1,'1111122,1111122,1111122' 
NDBC,ioos:station:NOAA.NDBC:SGOF1:1,2017-07-03T11:00:00Z,29.4080,-84.8580,35.1,4.6,310.0,5.1,'1111122,1111122,1111122' 
NDBC,ioos:station:NOAA.NDBC:SGOF1:1,2017-07-03T12:00:00Z,29.4080,-84.8580,35.1,5.1,330.0,5.7,'1111122,1111122,1111122' 
NDBC,ioos:station:NOAA.NDBC:SGOF1:1,2017-07-03T13:00:00Z,29.4080,-84.8580,35.1,3.6,310.0,3.6,'1111122,1111122,1111122' 
NDBC,ioos:station:NOAA.NDBC:SGOF1:1,2017-07-03T14:00:00Z,29.4080,-84.8580,35.1,3.1,330.0,3.1,'1111122,1111122,1111122' 
NDBC,ioos:station:NOAA.NDBC:SGOF1:1,2017-07-03T15:00:00Z,29.4080,-84.8580,35.1,3.6,320.0,4.1,'1111122,1111122,1111122' 
NDBC,ioos:station:NOAA.NDBC:SGOF1:1,2017-07-03T16:00:00Z,29.4080,-84.8580,35.1,2.6,300.0,3.1,'1111122,1111122,1111122' 
NDBC,ioos:station:NOAA.NDBC:SGOF1:1,2017-07-03T17:00:00Z,29.4080,-84.8580,35.1,2.6,280.0,2.6,'1111122,1111122,1111122' 
NDBC,ioos:station:NOAA.NDBC:SGOF1:1,2017-07-03T18:00:00Z,29.4080,-84.8580,35.1,2.1,260.0,2.6,'1111122,1111122,1111122' 
NDBC,ioos:station:NOAA.NDBC:SGOF1:1,2017-07-03T19:00:00Z,29.4080,-84.8580,35.1,2.6,250.0,3.1,'1111122,1111122,1111122' 
NDBC,ioos:station:NOAA.NDBC:SGOF1:1,2017-07-03T20:00:00Z,29.4080,-84.8580,35.1,4.6,230.0,5.1,'1111122,1111122,1111122' 
NDBC,ioos:station:NOAA.NDBC:SGOF1:1,2017-07-03T21:00:00Z,29.4080,-84.8580,35.1,5.1,240.0,5.7,'1111122,1111122,1111122' 
NDBC,ioos:station:NOAA.NDBC:SGOF1:1,2017-07-03T22:00:00Z,29.4080,-84.8580,35.1,5.7,250.0,6.2,'1111122,1111122,1111122' 
NDBC,ioos:station:NOAA.NDBC:SGOF1:1,2017-07-03T23:00:00Z,29.4080,-84.8580,35.1,5.1,260.0,5.7,'1111122,1111122,1111122' 
NDBC,ioos:station:NOAA.NDBC:SGOF1:1,2017-07-04T00:00:00Z,29.4080,-84.8580,35.1,5.1,270.0,5.1,'1111122,1111122,1111122' 
NDBC,ioos:station:NOAA.NDBC:SGOF1:1,2017-07-04T01:00:00Z,29.4080,-84.8580,35.1,3.1,280.0,3.1,'1111122,1111122,1111122' 
NDBC,ioos:station:NOAA.NDBC:SGOF1:1,2017-07-04T02:00:00Z,29.4080,-84.8580,35.1,4.1,290.0,4.6,'1111122,1111122,1111122' 
NDBC,ioos:station:NOAA.NDBC:SGOF1:1,2017-07-04T03:00:00Z,29.4080,-84.8580,35.1,3.1,280.0,3.6,'1111122,1111122,1111122' 
NDBC,ioos:station:NOAA.NDBC:SGOF1:1,2017-07-04T04:00:00Z,29.4080,-84.8580,35.1,2.6,280.0,3.1,'1111122,1111122,1111122' 
NDBC,ioos:station:NOAA.NDBC:SGOF1:1,2017-07-04T05:00:00Z,29.4080,-84.8580,35.1,2.6,260.0,3.1,'1111122,1111122,1111122' 
NDBC,ioos:station:NOAA.NDBC:SGOF1:1,2017-07-04T06:00:00Z,29.4080,-84.8580,35.1,3.1,250.0,3.6,'1111122,1111122,1111122' 
NDBC,ioos:station:NOAA.NDBC:SGOF1:1,2017-07-04T07:00:00Z,29.4080,-84.8580,35.1,3.6,230.0,3.6,'1111122,1111122,1111122' 
NDBC,ioos:station:NOAA.NDBC:SGOF1:1,2017-07-04T08:00:00Z,29.4080,-84.8580,35.1,3.1,260.0,3.6,'1111122,1111122,1111122' 
NDBC,ioos:station:NOAA.NDBC:SGOF1:1,2017-07-04T09:00:00Z,29.4080,-84.8580,35.1,2.6,250.0,3.1,'1111122,1111122,1111122' 
NDBC,ioos:station:NOAA.NDBC:SGOF1:1,2017-07-04T10:00:00Z,29.4080,-84.8580,35.1,2.6,260.0,2.6,'1111122,1111122,1111122' 
NDBC,ioos:station:NOAA.NDBC:SGOF1:1,2017-07-04T11:00:00Z,29.4080,-84.8580,35.1,1.5,280.0,2.6,'1111122,1111122,1111122' 
NDBC,ioos:station:NOAA.NDBC:SGOF1:1,2017-07-04T12:00:00Z,29.4080,-84.8580,35.1,2.1,270.0,2.6,'1111122,1111122,1111122' 
NDBC,ioos:station:NOAA.NDBC:SGOF1:1,2017-07-04T13:00:00Z,29.4080,-84.8580,35.1,2.6,320.0,2.6,'1111122,1111122,1111122' 
NDBC,ioos:station:NOAA.NDBC:SGOF1:1,2017-07-04T14:00:00Z,29.4080,-84.8580,35.1,2.1,320.0,2.6,'1111122,1111122,1111122' 
NDBC,ioos:station:NOAA.NDBC:SGOF1:1,2017-07-04T15:00:00Z,29.4080,-84.8580,35.1,1.5,340.0,2.6,'1111122,1111122,1111122' 
NDBC,ioos:station:NOAA.NDBC:SGOF1:1,2017-07-04T16:00:00Z,29.4080,-84.8580,35.1,2.1,340.0,2.6,'1111122,1111122,1111122' 
NDBC,ioos:station:NOAA.NDBC:SGOF1:1,2017-07-04T17:00:00Z,29.4080,-84.8580,35.1,1.5,360.0,2.1,'1111122,1111122,1111122' 
NDBC,ioos:station:NOAA.NDBC:SGOF1:1,2017-07-04T18:00:00Z,29.4080,-84.8580,35.1,0.5,20.0,1.0,'1111122,1111122,1111122' 
NDBC,ioos:station:NOAA.NDBC:SGOF1:1,2017-07-04T19:00:00Z,29.4080,-84.8580,35.1,1.0,180.0,1.5,'1111122,1111122,1111122' 
NDBC,ioos:station:NOAA.NDBC:SGOF1:1,2017-07-04T20:00:00Z,29.4080,-84.8580,35.1,2.6,170.0,3.1,'1111122,1111122,1111122' 
NDBC,ioos:station:NOAA.NDBC:SGOF1:1,2017-07-04T21:00:00Z,29.4080,-84.8580,35.1,2.6,200.0,3.1,'1111122,1111122,1111122' 
NDBC,ioos:station:NOAA.NDBC:SGOF1:1,2017-07-04T22:00:00Z,29.4080,-84.8580,35.1,4.1,200.0,4.6,'1111122,1111122,1111122' 
NDBC,ioos:station:NOAA.NDBC:SGOF1:1,2017-07-04T23:00:00Z,29.4080,-84.8580,35.1,5.1,200.0,5.7,'1111122,1111122,1111122' 
NDBC,ioos:station:NOAA.NDBC:SGOF1:1,2017-07-05T00:00:00Z,29.4080,-84.8580,35.1,5.1,200.0,5.7,'1111122,1111122,1111122' 
NDBC,ioos:station:NOAA.NDBC:SGOF1:1,2017-07-05T01:00:00Z,29.4080,-84.8580,35.1,3.6,220.0,4.1,'1111122,1111122,1111122' 
NDBC,ioos:station:NOAA.NDBC:SGOF1:1,2017-07-05T02:00:00Z,29.4080,-84.8580,35.1,4.1,250.0,4.6,'1111122,1111122,1111122' 
NDBC,ioos:station:NOAA.NDBC:SGOF1:1,2017-07-05T03:00:00Z,29.4080,-84.8580,35.1,2.6,250.0,3.1,'1111122,1111122,1111122' 
NDBC,ioos:station:NOAA.NDBC:SGOF1:1,2017-07-05T04:00:00Z,29.4080,-84.8580,35.1,3.1,260.0,3.6,'1111122,1111122,1111122' 
NDBC,ioos:station:NOAA.NDBC:SGOF1:1,2017-07-05T05:00:00Z,29.4080,-84.8580,35.1,3.6,220.0,3.6,'1111122,1111122,1111122' 
NDBC,ioos:station:NOAA.NDBC:SGOF1:1,2017-07-05T06:00:00Z,29.4080,-84.8580,35.1,2.6,230.0,3.1,'1111122,1111122,1111122' 
NDBC,ioos:station:NOAA.NDBC:SGOF1:1,2017-07-05T07:00:00Z,29.4080,-84.8580,35.1,2.6,270.0,3.1,'1111122,1111122,1111122' 
NDBC,ioos:station:NOAA.NDBC:SGOF1:1,2017-07-05T08:00:00Z,29.4080,-84.8580,35.1,2.1,270.0,2.6,'1111122,1111122,1111122' 
NDBC,ioos:station:NOAA.NDBC:SGOF1:1,2017-07-05T09:00:00Z,29.4080,-84.8580,35.1,2.1,270.0,2.1,'1111122,1111122,1111122' 
NDBC,ioos:station:NOAA.NDBC:SGOF1:1,2017-07-05T10:00:00Z,29.4080,-84.8580,35.1,1.5,250.0,2.1,'1111122,1111122,1111122' 
NDBC,ioos:station:NOAA.NDBC:SGOF1:1,2017-07-05T12:00:00Z,29.4080,-84.8580,35.1,0.5,220.0,0.5,'1111122,1111122,1111122' 
NDBC,ioos:station:NOAA.NDBC:SGOF1:1,2017-07-05T14:00:00Z,29.4080,-84.8580,35.1,0.0,-9999.0,0.5,'1114422,1111122,1111122' 
NDBC,ioos:station:NOAA.NDBC:SGOF1:1,2017-07-05T15:00:00Z,29.4080,-84.8580,35.1,1.0,10.0,1.5,'1111122,1111122,1111122' 
NDBC,ioos:station:NOAA.NDBC:SGOF1:1,2017-07-05T16:00:00Z,29.4080,-84.8580,35.1,1.5,10.0,2.1,'1111122,1111122,1111122' 
NDBC,ioos:station:NOAA.NDBC:SGOF1:1,2017-07-05T17:00:00Z,29.4080,-84.8580,35.1,2.1,80.0,2.6,'1111122,1111122,1111122' 
NDBC,ioos:station:NOAA.NDBC:SGOF1:1,2017-07-05T18:00:00Z,29.4080,-84.8580,35.1,1.5,90.0,2.1,'1111122,1111122,1111122' 
NDBC,ioos:station:NOAA.NDBC:SGOF1:1,2017-07-05T19:00:00Z,29.4080,-84.8580,35.1,2.1,90.0,2.1,'1111122,1111122,1111122' 
NDBC,ioos:station:NOAA.NDBC:SGOF1:1,2017-07-05T20:00:00Z,29.4080,-84.8580,35.1,1.5,190.0,2.1,'1111122,1111122,1111122' 
NDBC,ioos:station:NOAA.NDBC:SGOF1:1,2017-07-05T21:00:00Z,29.4080,-84.8580,35.1,2.1,210.0,2.6,'1111122,1111122,1111122' 
NDBC,ioos:station:NOAA.NDBC:SGOF1:1,2017-07-05T22:00:00Z,29.4080,-84.8580,35.1,1.0,250.0,1.0,'1111122,1111122,1111122' 
NDBC,ioos:station:NOAA.NDBC:SGOF1:1,2017-07-05T23:00:00Z,29.4080,-84.8580,35.1,1.0,280.0,1.0,'1111122,1111122,1111122' 
NDBC,ioos:station:NOAA.NDBC:SGOF1:1,2017-07-06T00:00:00Z,29.4080,-84.8580,35.1,1.0,330.0,1.0,'1111122,1111122,1111122' 
NDBC,ioos:station:NOAA.NDBC:SGOF1:1,2017-07-06T01:00:00Z,29.4080,-84.8580,35.1,0.5,280.0,0.5,'1111122,1111122,1111122' 
NDBC,ioos:station:NOAA.NDBC:SGOF1:1,2017-07-06T02:00:00Z,29.4080,-84.8580,35.1,1.0,240.0,1.5,'1111122,1111122,1111122' 
NDBC,ioos:station:NOAA.NDBC:SGOF1:1,2017-07-06T03:00:00Z,29.4080,-84.8580,35.1,1.0,210.0,1.0,'1111122,1111122,1111122' 
NDBC,ioos:station:NOAA.NDBC:SGOF1:1,2017-07-06T04:00:00Z,29.4080,-84.8580,35.1,1.5,340.0,1.5,'1111122,1111122,1111122' 
NDBC,ioos:station:NOAA.NDBC:SGOF1:1,2017-07-06T05:00:00Z,29.4080,-84.8580,35.1,0.5,350.0,1.0,'1111122,1111122,1111122' 
NDBC,ioos:station:NOAA.NDBC:SGOF1:1,2017-07-06T07:00:00Z,29.4080,-84.8580,35.1,1.5,220.0,1.5,'1111122,1111122,1111122' 
NDBC,ioos:station:NOAA.NDBC:SGOF1:1,2017-07-06T08:00:00Z,29.4080,-84.8580,35.1,0.0,-9999.0,1.0,'1114422,1111122,1111122' 
NDBC,ioos:station:NOAA.NDBC:SGOF1:1,2017-07-06T09:00:00Z,29.4080,-84.8580,35.1,1.0,140.0,1.0,'1111122,1111122,1111122' 
NDBC,ioos:station:NOAA.NDBC:SGOF1:1,2017-07-06T10:00:00Z,29.4080,-84.8580,35.1,0.5,160.0,0.5,'1111122,1111122,1111122' 
NDBC,ioos:station:NOAA.NDBC:SGOF1:1,2017-07-06T11:00:00Z,29.4080,-84.8580,35.1,1.0,40.0,1.5,'1111122,1111122,1111122' 
NDBC,ioos:station:NOAA.NDBC:SGOF1:1,2017-07-06T12:00:00Z,29.4080,-84.8580,35.1,0.0,-9999.0,0.5,'1114422,1111122,1111122' 
 
DISCLAIMER: The Gulf of Mexico Coastal and Ocean Observing (GCOOS) Data Portal aggregates data from the regional data providers for the convenience of all data users. Data published on this website should not be used for navigation or certain other uses as we cannot guarantee data accuracy or availability. The data and delivery services are provided 'as is' without warranty of any kind. Data Source: Gulf of Mexico Coastal Ocean Observing System Data Portal (http://data.gcoos.org/) 
